{"data":{"norad_id":63070,"epoch":"2026-05-24T20:31:11.339904Z","epoch_age_seconds":94371,"freshness":"FRESH","line1":"1 63070U 25035U   26144.85499236  .00020335  00000+0  74595-3 0  9999","line2":"2 63070  43.0002  77.3375 0000547 274.7946  85.2843 15.27602430 71361","mean_motion":15.2760243,"eccentricity":5.47e-5,"inclination_deg":43.0002,"raan_deg":77.3375,"arg_perigee_deg":274.7946,"mean_anomaly_deg":85.2843,"bstar":0.00074595,"rev_number":7136,"period_min":94.265364581804,"perigee_km":482.60663016666,"apogee_km":483.35723657797,"semimajor_km":6861.1189333723,"source":"CELESTRAK","updated_at":"2026-05-25T13:38:19.875184Z"}}